Location: Foligno
(42.9600°N, 12.7050°E)
Time: 04:36:00
(UTC+02:00)

ISS - Pass Details

Date: 25 May 2018
Orbit: 402 x 407 km, 51.6° (Epoch: 26 May)

Event Time Altitude Azimuth Distance (km) Brightness Sun altitude
Rises 23:36:16 0° 296° (WNW) 2,319 0.7 -22.7°
Reaches altitude 10° 23:38:50 10° 317° (NW) 1,459 -0.1 -22.9°
Maximum altitude 23:41:08 18° 1° (N) 1,090 -0.9 -23.0°
Drops below altitude 10° 23:43:25 10° 46° (NE) 1,458 -0.8 -23.2°
Enters shadow 23:44:38 - 58° (ENE) 1,836 -0.4 -23.3°
